Location: Dannhausen
(51.8650°N, 10.1026°E)
Time: 16:32:26
(UTC+00:00)

Daily predictions for brighter satellites

Satellite Brightness Start Highest point End
(mag) Time Altitude Azimuth Time Altitude Azimuth Time Altitude Azimuth
Cosmos 1812 3.3 19:35:54 10° N 19:39:37 42° ENE 19:43:17 10° SE
Cosmos 1933 3.8 19:35:51 10° NNW 19:39:52 63° W 19:43:50 10° S
Cosmos 1782 2.8 19:37:48 10° N 19:41:50 84° E 19:45:49 10° SSE
Landsat 7 3.8 19:39:55 10° SSE 19:44:40 79° ENE 19:49:28 10° NNW
ERS-1 Rocket 4.1 19:40:56 10° ESE 19:45:16 30° ENE 19:49:37 10° N
Cosmos 1862 4.3 19:41:57 10° SSE 19:45:21 27° E 19:48:44 10° NNE
SL-27 R/B 3.0 19:46:18 10° S 19:49:40 38° ESE 19:53:02 10° NE
Cosmos 2333 Rocket 2.5 19:45:15 10° NNW 19:50:50 58° NE 19:56:26 10° SE
ATLAS CENTAUR R/B 4.4 19:44:54 10° WNW 19:51:33 80° NNE 20:09:55 10° ESE
BREEZE-M DEB (TANK) 3.7 19:50:07 10° WSW 19:52:43 25° SSW 19:57:52 10° SE
Cosmos 2237 Rocket 3.8 19:48:08 10° NNW 19:52:44 24° NE 19:57:19 10° E
Cosmos 2322 Rocket 2.9 19:47:20 10° NW 19:52:47 52° WSW 19:58:13 10° S
Cosmos 2322 4.0 19:48:14 10° NNW 19:53:54 58° NE 19:59:32 10° SE
SPOT 5 3.7 19:52:54 10° SE 19:56:49 32° ENE 20:00:53 10° N
USA 234 3.9 19:50:26 10° ENE 19:56:51 60° N 20:03:17 10° W
ARIANE 5 R/B 3.4 19:54:26 10° SE 19:58:33 38° ENE 20:02:39 10° N
Cosmos 1452 Rocket 4.0 19:54:11 10° NNW 19:59:16 47° ENE 20:04:09 11° SE
BREEZE-M R/B 4.4 19:58:34 10° S 20:00:55 14° SSE 20:02:47 10° ESE
OBJECT-B 3.7 19:59:29 10° SW 20:01:21 14° W 20:03:14 10° NW
Cosmos 923 Rocket 4.3 19:56:23 10° SSW 20:01:43 75° WNW 20:07:06 10° NNE
Cosmos 2219 Rocket 2.4 19:59:27 10° NNW 20:05:02 60° NE 20:10:11 12° SE
S3M 4.3 19:58:59 10° N 20:05:16 55° ENE 20:11:31 10° SSE
Cosmos 2056 Rocket 4.0 20:04:20 10° NNW 20:09:36 62° WSW 20:14:46 10° S
ATLAS 5 CENTAUR R/B 2.4 20:06:04 10° NW 20:11:20 69° NE 20:17:08 12° SE
Meteor 1-27 Rocket 4.2 20:08:33 10° N 20:14:02 47° ENE 20:18:59 13° SE
Meteor 2-14 Rocket 4.5 20:12:07 10° S 20:18:12 67° E 20:24:17 10° NNE
Spot 2 Rocket 3.6 20:14:04 11° SSE 20:19:00 72° ENE 20:24:07 10° NNW
SPOT 1/Viking Rocket 3.7 20:15:05 10° SSE 20:20:18 78° WSW 20:25:35 10° NNW
USA 245 3.2 20:16:53 10° SSE 20:21:06 90° ESE 20:24:28 10° NNW
Cosmos 1408 Rocket 3.7 20:17:34 10° S 20:21:48 54° E 20:26:02 10° NNE
NOSS 2-1 (E) 2.8 20:20:19 10° SW 20:23:34 86° SE 20:27:08 10° NE
SL-16 R/B 4.2 20:20:49 10° NNW 20:24:51 19° NNE 20:28:52 10° ENE
CZ-2C R/B 3.7 20:20:26 10° NNE 20:24:54 64° ESE 20:29:18 10° S
Cosmos 1655 Rocket 4.3 20:19:35 10° SSE 20:25:42 51° E 20:31:52 10° NNE
SL-16 R/B 4.1 20:21:26 10° NW 20:25:57 25° WSW 20:30:25 10° SSW
Cosmos 2026 Rocket 4.4 20:20:29 10° SSW 20:26:45 68° WNW 20:32:57 10° N
GP-B 3.4 20:23:28 10° N 20:27:55 71° W 20:32:20 10° S
Cosmos 1743 Rocket 4.2 20:25:39 14° SSE 20:28:58 37° E 20:33:01 10° NNE
Cosmos 1151 Rocket 4.2 20:26:25 10° NNW 20:30:34 43° W 20:34:42 10° SSW
CARTOSAT-1 3.6 20:29:08 13° SSE 20:32:59 88° WSW 20:37:21 10° NNW
NOSS 3-1 (C) 4.3 20:26:14 10° NW 20:33:29 64° SW 20:40:55 14° SSE
Cosmos 1680 Rocket 4.3 20:29:05 10° SW 20:34:14 55° WNW 20:39:25 10° NNE
Lacrosse 5 3.1 20:33:36 14° SSE 20:36:16 20° SE 20:39:55 10° E
Cosmos 2333 4.4 20:31:32 10° NW 20:37:06 65° WSW 20:41:51 14° SSE
Okean 3 Rocket 4.2 20:33:56 10° SSW 20:38:24 60° WNW 20:42:56 10° N
ERS-2 3.7 20:36:28 10° N 20:39:51 37° WNW 20:43:13 10° SW
Meteor 1-10 Rocket 4.3 20:36:05 10° NNW 20:41:39 77° W 20:46:47 12° S
CZ-4C R/B 3.9 20:40:14 10° NW 20:46:15 38° NNE 20:53:23 10° E
Cosmos 1515 Rocket 3.9 20:43:34 10° NNW 20:47:57 64° W 20:51:45 13° S
COSMOS 2487 2.4 20:45:40 16° S 20:48:09 53° ESE 20:51:29 10° NNE
GEOS 3 Rocket 4.1 20:43:11 10° NE 20:48:22 63° NW 20:53:28 10° WSW
COSMOS 2428 2.7 20:44:00 10° NNW 20:49:45 85° WSW 20:53:52 20° SSE
USA 229 DEB 4.0 20:44:31 10° NW 20:51:46 73° SW 20:57:36 19° SSE
USA 229 4.0 20:44:37 10° NW 20:51:51 73° SW 20:57:42 19° SSE
COSMOS 2455 2.8 20:48:34 10° SSW 20:54:31 68° ESE 21:00:31 10° NE
Terra 1.8 20:54:30 21° SSE 20:57:45 80° ENE 21:02:33 10° NNW
Cosmos 2360 Rocket 3.7 20:54:33 10° NW 20:59:19 29° WSW 21:04:04 10° SSW
Cosmos 2084 Rocket 3.4 20:55:49 10° NW 21:00:00 86° SW 21:02:26 25° SE
Cosmos 1048 Rocket 4.0 20:59:48 14° S 21:04:03 56° ESE 21:09:03 10° NNE
Cosmos 972 Rocket 3.9 21:01:59 11° S 21:06:55 70° ESE 21:11:48 10° NNE
USA 102 3.3 21:08:33 48° ESE 21:09:36 71° NE 21:17:18 10° NNW
Resurs 01 Rocket 4.2 21:08:19 10° SW 21:11:12 17° W 21:14:06 10° NW
IRIDIUM 106 4.3 21:07:00 10° N 21:12:14 71° E 21:15:24 24° SSE
NOSS 3-1 (A) 4.3 21:05:02 10° NW 21:12:18 61° SW 21:18:16 21° SSE
Cosmos 1707 Rocket 3.9 21:10:25 10° N 21:14:42 50° ENE 21:16:40 28° SE
Meteor 1-19 Rocket 4.5 21:10:01 10° N 21:15:30 54° ENE 21:18:31 25° SE
H-2A R/B 3.9 21:11:29 10° NNE 21:15:31 43° E 21:17:03 30° SSE
Cosmos 2266 Rocket 4.0 21:09:42 11° S 21:15:43 86° W 21:22:05 10° N
Okean 1 3.9 21:12:00 10° N 21:15:50 42° ENE 21:17:20 29° ESE
Cosmos 1980 3.8 21:10:31 10° NNW 21:16:11 68° ENE 21:19:35 25° SE
NOSS 2-2 (D) 4.3 21:13:05 10° NW 21:18:00 76° NE 21:22:28 22° SE
ERS-1 Rocket 3.7 21:20:13 17° S 21:23:53 48° W 21:28:46 10° NNW
Cosmos 2228 Rocket 3.3 21:19:58 10° NNW 21:24:22 66° W 21:26:53 25° S
Cosmos 1500 4.3 21:24:25 26° ESE 21:24:59 28° E 21:28:19 10° NNE
Cosmos 2285 Rocket 4.4 21:22:48 10° NNW 21:28:55 55° WSW 21:33:03 21° S
Cosmos 2297 Rocket 3.0 21:31:27 27° SE 21:33:06 32° ESE 21:38:05 10° NE
Cosmos 2315 Rocket 4.2 21:26:56 10° NNW 21:33:15 71° W 21:37:37 21° S
Cosmos 1805 Rocket 3.5 21:31:35 26° S 21:34:06 88° WNW 21:38:32 10° N
BREEZE-M DEB (TANK) 2.9 21:29:46 10° W 21:34:20 32° SSW 21:34:36 31° SSW
NOSS 0 Rocket 4.0 21:28:11 10° NW 21:34:24 71° WSW 21:37:53 27° SSE
Cosmos 2333 Rocket 3.5 21:29:58 10° NW 21:34:50 30° WSW 21:38:33 15° SSW
SPOT 5 3.9 21:31:58 17° SSW 21:34:53 35° W 21:39:04 10° NNW
ARIANE 5 R/B 4.2 21:31:52 13° SSW 21:35:05 29° W 21:38:59 10° NNW
Cosmos 972 4.5 21:32:40 24° S 21:35:51 65° ESE 21:40:49 10° NNE
Cosmos 2237 Rocket 2.2 21:31:53 10° NNW 21:37:38 87° ENE 21:40:34 30° SSE
USA 234 3.7 21:33:03 10° E 21:39:31 64° NNE 21:45:59 10° WNW
Meteor 1-20 Rocket 4.2 21:40:22 24° S 21:43:54 83° E 21:49:43 10° NNE
NOSS 2-2 (E) 4.4 21:40:23 10° NW 21:45:33 70° SW 21:49:13 29° SSE
Cosmos 2227 Rocket 3.0 21:44:50 28° SE 21:46:06 31° ESE 21:51:01 10° NE
ALOS 2 3.8 21:45:45 24° ESE 21:47:27 32° ENE 21:51:24 10° N
Cosmos 2219 Rocket 3.6 21:43:55 10° NW 21:48:38 29° WSW 21:51:54 17° SSW
Sich 1 3.2 21:53:28 29° SSW 21:55:35 70° WNW 21:59:53 10° N
ATLAS 5 CENTAUR R/B 3.3 21:50:53 10° WNW 21:55:52 33° WSW 21:58:39 23° SSW
Cosmos 1515 4.2 21:52:37 10° NNW 21:56:19 51° W 21:57:27 36° SSW
Nadezhda 1 Rocket 4.2 21:57:14 10° N 22:03:38 66° ENE 22:06:40 32° SSE
Cosmos 44 4.1 22:04:44 10° NW 22:09:58 50° NE 22:13:02 22° ESE
SL-16 R/B 2.5 22:04:30 10° NNW 22:10:09 62° NE 22:12:56 30° SE
Cosmos 1633 Rocket 2.9 22:10:51 45° S 22:12:08 86° E 22:16:31 10° NNE
Cosmos 1470 Rocket 3.7 22:14:08 47° SE 22:14:56 56° E 22:19:12 10° NNE
Cosmos 1666 2.9 22:15:50 50° ESE 22:16:07 52° E 22:19:52 10° NNE
Lacrosse 5 1.7 22:13:31 10° SW 22:18:35 74° SE 22:23:39 10° ENE
Cosmos 1933 Rocket 4.1 22:20:15 40° ESE 22:20:59 44° E 22:25:13 10° NNE
Cosmos 1666 Rocket 3.9 22:21:09 35° SW 22:22:52 64° WNW 22:27:21 10° N
SL-08 ROCKET BODY 4.5 22:21:33 30° SSW 22:24:45 82° WNW 22:30:59 10° N
Cosmos 1340 Rocket 3.0 22:28:40 49° ESE 22:28:52 50° E 22:32:43 10° NNE
Cosmos 2251 Rocket 4.5 22:34:43 29° ESE 22:35:30 31° E 22:40:09 10° NE
CZ-4C R/B 2.9 22:28:46 10° NW 22:35:43 82° NE 22:41:11 23° SE
Terra 4.1 22:33:24 11° SW 22:36:06 16° W 22:39:04 10° NW
COBE Rocket 4.5 22:36:50 34° SW 22:38:17 45° W 22:42:53 10° NNW
Meteor 2-4 Rocket 4.0 22:32:35 10° NNW 22:38:28 65° W 22:40:46 37° SSW
CZ-3B R/B 3.3 22:33:09 10° WNW 22:39:30 29° WSW 22:39:48 29° SW
COSMOS 2455 4.3 22:35:22 10° WSW 22:40:54 37° NW 22:46:28 10° NNE
Timation 2 Rocket 4.0 22:39:27 39° S 22:41:27 57° ESE 22:47:32 10° NE
Cosmos 1992 Rocket 3.9 22:36:25 10° NNW 22:41:41 81° WSW 22:43:15 46° SSE
ATLAS CENTAUR R/B 3.7 22:44:53 12° E 22:44:53 12° E 22:45:27 10° E
Cosmos 2242 Rocket 3.5 22:39:13 10° N 22:43:40 78° ENE 22:44:34 55° SSE
Cosmos 1544 4.1 22:44:14 33° E 22:44:14 33° E 22:47:16 10° NNE
Cosmos 1862 Rocket 4.4 22:40:13 10° NNW 22:44:16 39° W 22:45:19 33° SW
USA 267 3.6 22:40:16 10° ENE 22:46:27 43° SE 22:48:10 36° S
Cosmos 2219 3.2 22:48:17 34° SSW 22:50:56 90° ESE 22:56:45 10° NNE
Meteor 1-5 Rocket 4.3 22:49:37 38° SSW 22:52:02 84° WNW 22:58:03 10° NNE
Cosmos 1066 Rocket 4.3 22:47:22 10° N 22:53:17 77° ENE 22:55:26 41° SSE
ATLAS 2AS CENTAUR R/B 4.2 22:52:53 10° NW 22:59:57 39° NNE 23:06:33 10° E
Cosmos 1703 Rocket 3.5 22:56:13 10° NNW 23:00:36 72° W 23:01:20 58° SSW
Cosmos 2082 3.8 23:01:12 44° SSE 23:02:46 59° ESE 23:08:25 10° NE
Cosmos 1378 3.2 23:00:14 10° NNW 23:03:55 61° W 23:03:58 61° WSW
Cosmos 909 Rocket 4.3 23:02:47 31° SSW 23:06:24 79° SE 23:14:35 10° NE
Meteor 1-11 Rocket 3.7 23:05:19 45° SSE 23:06:59 70° E 23:12:31 10° NNE
Okean 1-7 3.1 23:04:46 10° NNW 23:08:59 60° W 23:09:33 54° SW
Cosmos 2181 Rocket 4.0 23:03:56 10° N 23:10:16 76° ENE 23:12:46 39° SSE
Nimbus 7 Rocket 4.4 23:10:42 10° NNE 23:16:43 77° ESE 23:18:53 42° S
Cosmos 2297 Rocket 2.8 23:13:12 21° WSW 23:16:55 55° NW 23:22:30 10° NNE
Meteor 1-23 Rocket 4.2 23:13:44 10° NNW 23:19:31 83° ENE 23:21:35 42° SSE
Cosmos 2221 Rocket 4.3 23:15:59 10° N 23:20:26 48° ENE 23:21:41 38° ESE
Cosmos 2237 Rocket 3.9 23:17:05 10° WNW 23:20:58 19° W 23:22:23 18° WSW
SL-16 R/B 4.3 23:16:43 10° ESE 23:21:42 26° NE 23:26:42 10° N
USA 234 3.1 23:18:03 22° SE 23:22:29 75° SSW 23:29:04 10° WNW
ALOS 2 3.5 23:23:09 33° WSW 23:23:45 35° W 23:27:49 10° NNW
Cosmos 614 Rocket 4.0 23:23:41 49° SSE 23:24:55 65° ESE 23:30:07 10° NNE
Cosmos 1461 2.9 23:27:18 63° S 23:27:50 71° SE 23:32:12 10° NE
Cosmos 1709 Rocket 4.1 23:26:19 37° SSW 23:29:00 75° WNW 23:35:26 10° N
Cosmos 2227 Rocket 2.7 23:26:37 24° WSW 23:29:53 57° NW 23:35:30 10° NNE
SL-24 R/B - RUBIN 2 3.7 23:26:10 10° NW 23:31:23 89° SW 23:32:45 47° SE
Cosmos 2263 Rocket 2.8 23:33:28 36° SE 23:34:48 41° ESE 23:40:08 10° NE
Cosmos 2344 4.2 23:34:40 30° SSE 23:37:03 36° ESE 23:43:58 10° NE
Cosmos 1603 3.8 23:33:12 10° NNW 23:38:51 76° ENE 23:41:31 33° SE
Cosmos 1536 3.0 23:40:44 53° WSW 23:41:15 59° WNW 23:45:16 10° N
PSLV R/B 3.8 23:36:46 10° NNE 23:41:34 73° ESE 23:42:34 54° S
MTI 4.4 23:39:23 10° N 23:41:49 47° NNW 23:41:49 47° NNW
Cosmos 1842 3.4 23:39:54 10° N 23:43:45 60° ENE 23:44:13 55° ESE
Okean 3 4.0 23:41:17 10° NNW 23:45:21 43° W 23:45:46 42° WSW
ARGOS Delta rocket 4.4 23:43:32 10° NNE 23:47:48 39° E 23:48:43 35° SE
Cosmos 1869 Rocket 3.8 23:47:06 49° SW 23:48:02 61° WNW 23:52:28 10° N
ASTEX 1 3.6 23:46:47 40° SE 23:48:23 62° E 23:53:17 10° N
Thor Agena Rocket 3.4 23:46:00 10° NNE 23:51:05 89° WNW 23:52:34 48° SSW
Cosmos 44 3.9 23:46:17 10° NW 23:51:09 39° WSW 23:51:25 39° SW
SL-16 R/B 3.3 23:49:09 10° NW 23:53:53 28° WSW 23:54:47 27° WSW
